This is the latest recevied weather packets stored in our database for station/object KD6VPH. If no packets are shown the sender has not sent any weather packets the latest 10 day(s).
| Time | Temp. | Humidity | Pressure | Rain* | Wind** | Luminosity | Snow |
|---|---|---|---|---|---|---|---|
| 1777419933 | 12.78° C | 69% | 1021.6 hPa | 0 mm | - | 204 W/m² | - |
| 1777419333 | 13.33° C | 69% | 1021.3 hPa | 0 mm | - | 216 W/m² | - |
| 1777418733 | 13.33° C | 67% | 1021.6 hPa | 0 mm | - | 257 W/m² | - |
| 1777418133 | 13.33° C | 67% | 1021.6 hPa | 0 mm | - | 257 W/m² | - |
| 1777417533 | 12.78° C | 67% | 1021.7 hPa | 0 mm | - | 299 W/m² | - |
| 1777416933 | 13.33° C | 68% | 1021.6 hPa | 0 mm | - | 330 W/m² | - |
| 1777416333 | 13.33° C | 70% | 1021.7 hPa | 0 mm | - | 341 W/m² | - |
| 1777415733 | 12.78° C | 69% | 1021.6 hPa | 0 mm | - | 329 W/m² | - |
| 1777415133 | 12.78° C | 70% | 1021.6 hPa | 0 mm | - | 341 W/m² | - |
| 1777414533 | 12.78° C | 70% | 1021.6 hPa | 0 mm | - | 343 W/m² | - |
| 1777413933 | 12.78° C | 69% | 1021.6 hPa | 0 mm | - | 343 W/m² | - |
| 1777413333 | 12.78° C | 69% | 1021.7 hPa | 0 mm | - | 366 W/m² | - |
| 1777412733 | 12.78° C | 68% | 1021.5 hPa | 0 mm | - | 420 W/m² | - |
| 1777411533 | 12.78° C | 70% | 1021.8 hPa | 0 mm | - | 429 W/m² | - |
| 1777410933 | 12.78° C | 69% | 1021.8 hPa | 0 mm | - | 318 W/m² | - |
| 1777410333 | 12.78° C | 68% | 1021.7 hPa | 0 mm | - | 376 W/m² | - |
| 1777409733 | 12.78° C | 69% | 1021.7 hPa | 0 mm | - | 348 W/m² | - |
| 1777409133 | 12.78° C | 69% | 1021.8 hPa | 0 mm | - | 466 W/m² | - |
| 1777408533 | 12.78° C | 69% | 1021.8 hPa | 0 mm | - | 633 W/m² | - |
| 1777407933 | 12.22° C | 70% | 1021.8 hPa | 0 mm | - | 483 W/m² | - |
| 1777407412 | 12.22° C | 72% | 1021.9 hPa | 0 mm | - | 320 W/m² | - |
| 1777407333 | 12.22° C | 72% | 1021.9 hPa | 0 mm | - | 320 W/m² | - |
| 1777406733 | 11.67° C | 72% | 1021.9 hPa | 0 mm | - | 325 W/m² | - |
| 1777406133 | 11.67° C | 72% | 1021.9 hPa | 0 mm | - | 316 W/m² | - |
| 1777404933 | 11.67° C | 74% | 1021.7 hPa | 0 mm | - | 258 W/m² | - |
* Rain latest hour (hover to see other rain measurements)
** Current wind speed in m/s (hover to see current wind gust speed)